Temperature
32 32 31 31 31 31 31 32 32 33 34 33 32 31 31 30 30 29 28 27 26 25 24 23 22 21 21 20 20 19 19 19 19 19 18 18 19 19 18 18 18 18 18 18
32 31 32 33 33 32 32 32 32 33 34 33 32 31 31 31 30 29 28 27 26 25 24 23 22 21 21 20 20 19 19 19 19 19 19 19 19 19 18 18 18 18 18 18
31 32 33 33 33 32 32 32 32 32 33 33 32 31 31 31 30 29 29 28 27 26 24 23 22 22 21 20 20 19 19 19 19 19 18 18 18 18 18 18 18 18 18 18
32 33 33 33 33 33 32 33 33 32 31 31 31 29 29 29 30 30 29 28 27 26 25 24 23 22 21 21 20 20 19 19 19 19 18 18 18 18 18 18 18 18 18 18
32 33 33 33 33 33 33 34 33 32 31 31 31 29 29 29 29 29 29 28 27 26 25 24 23 22 21 21 20 20 19 19 19 19 18 18 18 18 18 18 18 18 18 18
33 34 34 33 34 33 33 33 32 32 31 29 29 29 28 29 29 29 29 28 27 26 25 24 23 22 21 21 20 20 19 19 19 19 18 18 18 18 18 18 18 18 18 18
32 33 34 34 33 33 33 32 30 29 29 28 29 28 28 29 30 30 29 28 27 26 25 24 23 22 21 21 20 20 19 19 19 19 18 18 18 18 18 18 18 18 18 18
31 31 33 34 33 32 32 32 29 28 28 29 29 28 29 30 30 30 29 28 27 26 25 24 23 22 21 20 20 19 19 19 19 19 19 18 18 18 18 18 18 17 18 18
31 31 33 34 34 33 32 32 32 30 30 29 28 28 29 30 30 30 29 28 27 26 25 24 23 22 21 20 20 19 19 19 19 18 18 18 18 18 18 17 17 17 17 17
31 31 32 33 33 33 33 32 32 31 28 28 28 28 28 28 29 29 29 28 27 26 25 24 23 22 21 20 20 19 19 19 18 18 18 18 18 17 17 17 17 17 17 17
32 31 31 32 31 32 32 32 32 31 30 29 27 27 29 28 28 29 29 27 27 26 25 24 23 22 21 21 20 19 19 19 18 18 18 18 17 17 17 17 17 17 17 17
32 31 30 31 33 33 33 32 32 30 29 29 28 27 30 30 30 29 28 27 26 25 25 24 23 22 21 21 20 19 19 18 18 18 18 17 17 17 17 17 17 17 17 17
31 30 29 30 31 32 32 32 33 32 31 30 28 27 29 30 29 29 28 27 26 25 24 23 23 22 21 20 19 19 19 18 18 18 18 17 17 17 17 16 16 16 16 16
31 30 30 29 29 30 31 31 32 32 30 30 29 28 28 28 28 28 27 27 26 25 24 23 22 21 20 20 19 19 18 18 18 17 17 17 17 16 16 16 16 16 16 16
31 30 30 30 31 31 31 31 31 31 31 30 29 28 27 27 28 27 27 26 25 24 23 22 22 21 20 19 19 18 18 18 17 17 17 16 16 16 16 16 16 16 16 16
30 29 29 29 31 31 31 31 31 31 31 30 30 28 28 28 28 27 26 26 25 24 23 22 21 20 20 19 19 18 18 17 17 17 16 16 16 16 15 16 16 15 15 15
30 29 28 28 30 30 29 30 30 30 31 30 29 29 28 28 27 26 26 25 24 23 22 21 21 20 19 19 18 18 17 17 16 16 16 16 15 15 15 15 15 15 15 15
29 28 28 28 28 27 29 31 30 30 30 30 29 29 29 27 26 25 25 24 24 23 22 21 20 20 19 18 18 17 17 17 16 16 15 15 15 15 15 15 14 14 14 14
29 28 27 27 27 28 29 30 30 29 29 29 29 29 28 27 26 25 24 23 23 22 21 20 20 19 18 18 17 17 17 16 16 15 15 15 15 14 14 14 14 14 14 14
29 28 27 27 26 26 28 30 30 29 27 28 28 28 27 26 25 24 23 22 22 21 20 20 19 19 18 17 17 16 16 16 15 15 15 14 14 14 14 14 14 14 14 13
27 27 27 26 26 27 27 29 29 27 26 27 26 26 25 24 24 22 22 21 21 20 20 19 19 18 17 17 16 16 16 15 15 15 14 14 14 14 14 14 14 14 13 13
27 26 26 26 25 25 27 27 26 25 26 26 25 24 23 23 22 22 21 20 20 19 19 18 18 17 17 16 16 16 15 15 15 14 14 14 14 14 14 14 14 13 13 13
27 26 26 25 25 25 26 26 25 25 25 25 25 24 23 22 22 21 20 20 19 19 18 18 17 17 16 16 16 15 15 15 14 14 14 14 14 14 14 14 14 14 14 13
26 26 26 25 25 26 25 25 25 25 24 24 24 23 23 22 21 20 20 19 19 18 18 17 17 16 16 15 15 15 14 14 14 14 14 14 14 14 14 13 13 13 13 13
25 25 25 25 25 25 25 24 24 24 23 23 23 22 22 21 20 20 19 18 18 18 17 17 16 16 16 15 15 15 14 14 14 14 14 14 14 14 14 13 13 13 13 13
25 25 24 24 24 24 24 23 23 23 22 22 22 22 21 21 20 19 18 18 17 17 17 16 16 16 15 15 15 15 14 14 14 14 14 14 14 14 13 13 13 13 13 13
Wind_Speed
10 9 8 6 8 8 8 8 4 2 1 2 1 4 7 6 7 7 8 8 8 8 8 8 7 7 7 6 5 4 2 2 1 1 0 0 0 1 1 2 2 1 0 0
8 11 8 7 8 7 7 7 5 2 1 2 2 3 7 8 7 6 7 9 9 9 9 9 8 7 7 6 5 4 3 2 1 0 0 0 0 1 1 1 2 1 0 0
10 8 6 8 9 6 7 6 6 5 5 5 3 3 6 7 7 6 6 8 9 10 10 9 8 7 7 6 5 4 3 3 2 1 0 0 1 1 1 1 2 1 1 1
10 11 8 8 7 7 8 5 6 7 8 6 5 2 5 4 5 6 6 6 8 9 10 9 8 7 7 7 6 5 3 3 2 2 0 0 1 1 1 1 1 1 1 1
8 9 8 8 7 7 8 8 8 8 8 8 5 1 3 4 4 5 6 5 7 8 8 9 8 7 7 6 6 6 5 3 3 2 1 1 1 1 2 2 2 2 1 1
12 9 8 7 6 7 8 9 10 8 6 6 5 3 1 4 5 6 7 7 6 8 8 7 7 6 6 6 5 6 5 4 3 3 2 2 1 1 2 2 2 1 1 2
11 12 9 7 7 8 9 8 6 5 4 5 3 2 2 6 7 8 8 7 7 8 8 7 7 7 6 5 5 5 5 4 3 3 2 2 1 1 1 1 1 1 1 2
10 8 8 7 7 6 7 7 6 7 6 4 1 3 5 6 8 8 8 8 8 8 8 7 7 6 5 5 5 5 5 4 4 4 3 2 2 1 1 0 1 1 1 2
8 7 6 6 6 7 7 7 8 9 10 6 1 2 5 6 8 8 8 8 7 7 9 8 7 7 6 5 4 4 5 4 3 3 4 3 2 1 1 1 1 1 1 1
9 8 7 6 7 8 8 8 7 6 5 6 3 1 2 5 5 6 7 7 7 5 8 9 8 7 6 6 5 4 5 4 4 4 3 3 2 2 2 1 0 1 1 2
10 9 8 8 8 8 8 8 7 6 6 6 4 2 4 7 5 6 7 7 7 5 5 8 8 7 6 6 5 4 5 4 4 4 3 2 2 2 2 1 1 0 1 1
8 9 9 10 8 9 9 9 9 6 5 5 5 1 3 4 4 6 8 7 8 6 6 7 8 6 5 5 4 4 3 4 4 3 3 2 2 2 1 1 1 1 1 1
4 7 8 8 7 7 8 9 9 9 7 5 5 1 2 3 4 6 8 8 7 7 7 6 6 6 5 5 4 3 3 3 3 3 3 2 2 2 1 0 1 0 0 1
5 8 9 9 7 7 8 10 10 10 7 5 3 2 3 2 3 5 7 8 7 7 5 5 6 6 5 5 4 3 3 3 3 3 3 3 2 2 1 1 1 1 1 1
6 9 11 11 9 9 11 10 10 9 9 7 2 2 3 1 4 5 6 7 7 7 6 6 5 5 4 3 3 3 3 3 3 2 3 3 2 1 1 0 1 1 1 1
6 8 10 12 12 11 11 10 9 8 8 6 3 4 4 2 4 6 6 6 6 5 5 5 5 5 4 3 2 3 3 2 2 2 3 2 2 1 0 0 0 0 1 2
7 8 10 12 11 10 10 8 7 7 6 6 3 4 6 5 5 5 5 5 5 5 5 5 4 4 3 3 3 2 3 3 3 2 2 2 1 1 1 1 2 2 2 2
8 7 8 10 9 11 5 2 4 4 3 3 1 4 6 7 6 6 5 5 4 5 5 5 4 4 4 4 4 3 3 3 2 2 1 1 1 1 1 1 1 1 1 1
9 7 8 9 11 9 6 4 4 3 2 2 1 3 6 7 6 5 5 5 6 6 6 5 4 5 4 4 4 3 3 2 1 1 1 1 1 0 1 1 1 1 1 1
9 7 9 9 11 9 4 4 5 2 2 4 3 4 4 3 2 3 5 6 6 7 6 5 5 5 5 4 3 2 2 2 1 1 1 1 1 1 1 0 0 1 1 2
8 8 10 11 10 5 4 4 4 4 2 4 4 5 5 4 4 5 6 6 6 6 5 5 5 5 4 4 3 2 2 1 1 1 1 1 1 1 1 0 1 1 2 2
7 7 8 8 8 4 6 4 2 4 4 4 5 6 7 7 7 6 6 5 5 5 4 5 4 4 4 4 3 2 2 2 1 1 0 0 1 2 1 0 1 2 3 3
6 4 3 2 2 1 2 3 4 3 2 2 3 5 5 4 4 5 5 4 4 4 3 3 4 3 3 3 2 2 1 1 1 1 1 1 1 2 1 2 2 3 2 2
3 1 3 2 1 0 1 2 3 3 2 2 2 3 3 4 3 4 4 3 3 3 3 2 3 2 2 2 2 2 1 1 1 1 1 1 2 2 1 1 1 1 2 2
3 3 4 4 3 2 1 2 2 3 2 1 2 2 2 3 3 3 3 3 2 3 2 2 2 2 2 2 1 1 1 1 1 2 2 2 2 2 1 1 1 1 1 1
7 5 6 5 3 3 1 1 1 1 0 0 1 1 1 2 3 3 3 3 3 2 2 2 1 0 1 1 1 0 0 1 2 3 3 3 2 1 1 1 1 1 2 2
Wind_Direction
236 239 247 244 237 243 263 284 292 315 343 336 145 153 156 159 141 143 146 145 145 144 140 136 134 132 124 117 116 117 116 104 109 112 282 149 133 108 87 108 97 99 342 33
246 243 247 260 260 257 266 285 291 301 257 276 207 173 153 150 145 151 153 152 152 151 150 149 148 145 142 135 130 135 138 134 151 134 239 207 132 126 109 82 112 116 153 339
245 253 250 255 250 258 268 267 289 307 299 268 243 184 154 143 144 146 149 148 151 153 155 155 159 160 158 151 150 156 154 149 155 126 169 30 126 103 65 78 86 53 50 42
246 256 252 266 267 265 272 282 288 280 279 269 248 198 129 137 152 146 148 151 152 152 151 155 161 166 164 160 158 145 138 141 141 139 88 50 86 69 49 33 63 71 63 28
257 248 254 259 270 277 288 297 287 282 281 283 292 274 169 164 173 156 149 145 152 150 151 152 157 165 164 161 154 146 135 131 139 152 149 94 34 44 47 50 49 47 57 38
261 261 252 257 271 272 284 286 279 270 271 272 281 278 184 170 174 156 147 148 144 142 139 135 141 142 147 146 142 135 129 130 142 147 132 110 85 60 41 42 62 48 71 48
253 249 239 238 252 260 267 275 286 279 249 252 250 213 158 147 148 140 132 127 128 130 127 131 134 136 134 134 134 131 128 137 143 145 141 137 143 130 92 35 28 9 45 49
252 244 229 227 242 269 266 268 277 292 295 296 250 169 121 113 125 122 123 125 130 132 131 132 129 125 128 134 129 125 129 139 150 155 160 153 144 143 130 84 330 13 31 41
270 261 248 245 245 258 264 271 276 284 291 298 270 119 111 109 116 116 117 119 124 132 137 137 134 132 130 118 116 127 130 140 151 155 154 146 152 162 91 49 19 29 35 31
263 277 265 249 251 238 255 274 280 279 293 291 277 179 141 121 122 130 131 127 125 131 139 135 135 135 132 129 117 118 134 143 146 138 143 140 151 147 127 118 86 16 16 17
257 265 262 245 247 253 247 257 271 293 299 296 303 344 124 138 152 150 136 128 123 121 131 132 132 133 132 129 127 115 108 110 116 119 131 143 140 140 147 137 125 358 358 3
250 265 263 256 250 245 258 264 264 264 274 283 290 292 123 112 116 117 119 118 115 119 112 118 124 123 123 119 112 113 112 111 108 107 109 103 117 121 124 120 96 49 9 356
263 265 259 256 247 242 256 265 274 274 268 265 268 205 118 84 83 94 109 113 107 102 99 104 99 102 98 94 85 92 100 95 97 105 107 96 89 85 78 70 107 99 10 349
257 258 268 268 271 271 264 270 272 274 273 271 245 176 136 95 87 91 108 120 120 112 102 99 98 90 92 95 96 88 77 77 79 87 108 99 87 78 69 45 25 6 15 12
248 257 270 278 276 276 265 261 262 267 280 282 241 191 149 148 118 110 109 114 117 118 114 103 100 99 94 101 109 92 80 72 73 77 86 86 91 94 81 64 26 5 359 358
249 270 278 277 275 275 272 264 264 263 267 266 247 143 132 144 110 101 101 109 117 117 115 106 98 98 97 101 110 112 102 98 92 89 81 77 76 64 41 68 46 33 22 12
245 260 272 273 276 272 262 261 267 279 279 273 270 139 139 120 95 90 95 102 110 122 120 111 110 109 109 116 113 109 104 97 97 89 88 87 90 70 35 22 34 22 16 17
242 252 258 266 271 264 262 262 256 275 298 327 50 117 113 112 102 92 95 98 104 114 118 121 122 112 94 80 89 92 93 93 99 98 81 63 75 68 44 42 40 6 351 355
227 236 254 260 261 260 254 258 244 245 273 313 77 98 107 112 120 100 81 90 105 104 102 103 100 95 88 76 76 81 79 85 88 98 85 15 17 30 41 25 10 353 337 334
221 215 238 254 266 268 282 348 358 301 226 31 49 86 99 116 150 97 81 89 97 98 98 97 97 94 90 81 74 78 80 66 52 57 55 351 340 335 317 303 315 309 296 281
219 224 235 250 259 264 335 337 312 283 65 40 48 68 75 69 78 103 98 87 89 98 104 105 101 95 87 76 69 72 73 53 39 57 83 13 339 288 268 234 242 256 256 260
238 240 238 246 259 265 357 357 10 52 43 40 56 76 83 88 96 107 107 101 99 100 107 110 100 95 94 86 73 71 59 45 38 23 43 25 317 299 299 277 255 249 252 257
235 249 258 274 241 55 42 45 58 64 31 42 69 91 99 101 103 111 114 111 106 101 97 105 116 104 95 91 79 82 54 42 32 20 349 330 307 296 283 245 269 270 271 284
245 240 251 260 183 333 11 38 32 31 40 40 61 94 113 116 118 122 128 124 116 110 104 101 109 109 99 93 89 96 71 51 32 335 294 270 257 263 303 307 321 335 335 328
282 253 256 250 238 233 213 23 33 40 36 48 58 93 128 135 134 132 129 126 119 110 104 92 83 100 103 97 101 98 62 351 303 289 275 254 243 225 226 338 337 356 340 265
267 254 247 262 292 271 269 25 46 93 12 32 137 120 124 137 139 141 137 136 136 130 127 131 132 195 158 140 153 120 139 289 288 282 280 278 266 231 213 196 254 323 261 253
Height
1489 1492 1494 1491 1489 1490 1489 1489 1490 1483 1477 1481 1487 1490 1491 1494 1496 1500 1504 1508 1512 1515 1518 1519 1521 1522 1523 1523 1524 1524 1524 1524 1524 1524 1524 1524 1525 1525 1525 1525 1525 1525 1525 1525
1490 1491 1485 1482 1481 1483 1486 1490 1488 1483 1477 1481 1486 1488 1488 1491 1495 1499 1502 1505 1509 1513 1516 1518 1520 1522 1522 1523 1523 1523 1524 1523 1524 1524 1524 1524 1524 1525 1525 1525 1525 1525 1525 1525
1491 1485 1480 1482 1482 1485 1486 1488 1486 1487 1480 1478 1484 1492 1490 1491 1494 1497 1500 1503 1507 1510 1514 1517 1519 1521 1522 1522 1523 1523 1523 1523 1523 1524 1524 1524 1524 1524 1525 1525 1525 1525 1525 1524
1484 1480 1479 1481 1481 1482 1488 1478 1480 1483 1488 1490 1488 1505 1497 1494 1494 1495 1499 1502 1505 1508 1512 1515 1518 1520 1521 1522 1522 1522 1523 1523 1523 1523 1523 1524 1524 1524 1525 1525 1525 1525 1524 1524
1482 1478 1479 1482 1480 1479 1481 1476 1478 1481 1487 1492 1489 1501 1503 1493 1496 1495 1497 1500 1503 1507 1510 1513 1516 1518 1520 1521 1521 1521 1522 1522 1522 1522 1522 1523 1524 1524 1524 1524 1524 1524 1524 1524
1478 1475 1475 1476 1475 1476 1476 1478 1479 1481 1489 1507 1498 1504 1507 1496 1494 1494 1495 1499 1502 1505 1509 1512 1515 1517 1519 1520 1520 1521 1521 1521 1521 1521 1522 1522 1523 1523 1524 1524 1524 1524 1523 1523
1482 1475 1472 1473 1479 1478 1478 1488 1503 1507 1510 1511 1492 1501 1503 1489 1487 1490 1494 1498 1502 1505 1508 1511 1514 1516 1517 1519 1519 1519 1519 1519 1520 1520 1521 1521 1522 1523 1523 1523 1524 1523 1523 1523
1490 1487 1473 1472 1476 1481 1480 1485 1506 1519 1517 1506 1497 1504 1495 1484 1485 1490 1493 1497 1501 1504 1507 1511 1513 1515 1517 1518 1518 1518 1518 1518 1519 1520 1520 1521 1521 1522 1522 1523 1523 1523 1522 1522
1489 1487 1471 1470 1472 1475 1482 1483 1480 1493 1498 1506 1504 1497 1491 1485 1487 1490 1494 1497 1501 1504 1507 1510 1513 1515 1516 1517 1518 1518 1517 1518 1518 1519 1519 1520 1520 1521 1521 1522 1522 1522 1522 1522
1478 1487 1476 1471 1472 1472 1475 1476 1481 1492 1511 1520 1509 1505 1503 1494 1490 1490 1494 1497 1500 1504 1505 1509 1512 1514 1516 1517 1517 1518 1517 1517 1518 1519 1519 1519 1519 1520 1520 1521 1521 1521 1521 1521
1474 1485 1481 1476 1479 1479 1477 1478 1481 1485 1490 1509 1519 1516 1489 1491 1489 1489 1492 1497 1499 1504 1506 1508 1511 1514 1516 1517 1517 1518 1517 1517 1518 1518 1519 1519 1519 1519 1520 1520 1520 1520 1520 1519
1474 1478 1486 1479 1470 1468 1472 1474 1478 1493 1499 1496 1507 1510 1483 1485 1487 1489 1493 1497 1501 1505 1507 1509 1511 1514 1516 1517 1517 1517 1518 1518 1518 1518 1518 1519 1518 1519 1519 1519 1519 1519 1519 1518
1476 1482 1495 1491 1482 1473 1474 1472 1471 1474 1483 1493 1506 1508 1486 1487 1488 1490 1494 1498 1503 1505 1508 1510 1512 1514 1516 1516 1517 1517 1518 1518 1518 1518 1518 1518 1518 1518 1518 1518 1518 1518 1517 1517
1477 1482 1490 1499 1491 1481 1480 1476 1473 1476 1486 1491 1494 1497 1493 1490 1491 1492 1495 1499 1503 1506 1509 1511 1512 1514 1515 1516 1517 1517 1518 1517 1517 1517 1517 1517 1517 1517 1517 1517 1516 1516 1516 1515
1475 1483 1482 1479 1475 1475 1476 1475 1473 1476 1478 1486 1489 1491 1492 1492 1492 1494 1496 1499 1502 1506 1509 1511 1513 1514 1515 1516 1516 1516 1517 1517 1517 1516 1516 1516 1516 1516 1516 1516 1516 1515 1515 1514
1477 1483 1484 1483 1476 1474 1475 1473 1472 1474 1474 1478 1482 1489 1488 1490 1492 1495 1498 1500 1503 1507 1509 1511 1513 1514 1515 1515 1516 1516 1516 1516 1516 1515 1516 1516 1515 1515 1515 1514 1514 1514 1513 1512
1479 1484 1490 1490 1479 1478 1484 1474 1474 1475 1472 1475 1482 1485 1486 1490 1493 1496 1499 1501 1504 1507 1509 1511 1512 1513 1514 1515 1515 1515 1515 1515 1515 1515 1514 1514 1514 1514 1514 1513 1513 1512 1511 1510
1480 1485 1488 1488 1490 1501 1481 1468 1470 1473 1474 1474 1478 1480 1485 1490 1495 1498 1500 1502 1504 1507 1509 1511 1512 1513 1514 1515 1515 1515 1515 1515 1514 1514 1513 1513 1513 1512 1512 1512 1511 1510 1510 1509
1475 1483 1488 1490 1494 1489 1477 1470 1470 1475 1480 1477 1479 1482 1486 1491 1495 1499 1501 1503 1505 1507 1509 1510 1512 1513 1513 1514 1514 1514 1514 1514 1513 1513 1512 1512 1512 1511 1510 1510 1508 1508 1508 1507
1473 1477 1486 1489 1498 1499 1483 1471 1471 1475 1484 1481 1481 1484 1487 1491 1496 1501 1502 1504 1505 1507 1509 1510 1511 1512 1513 1513 1514 1513 1513 1513 1512 1512 1511 1511 1510 1509 1509 1508 1507 1507 1506 1506
1479 1482 1486 1489 1493 1488 1479 1475 1475 1488 1492 1485 1485 1487 1490 1494 1498 1502 1503 1504 1506 1507 1509 1510 1510 1511 1512 1512 1513 1512 1512 1512 1512 1511 1510 1510 1509 1508 1508 1507 1506 1506 1505 1505
1479 1484 1486 1487 1496 1496 1481 1478 1484 1490 1488 1488 1489 1491 1494 1497 1500 1502 1503 1505 1507 1508 1509 1510 1510 1511 1511 1511 1511 1511 1511 1511 1511 1510 1509 1509 1508 1507 1507 1506 1505 1504 1504 1503
1475 1479 1480 1485 1489 1486 1484 1485 1486 1488 1489 1490 1492 1494 1496 1498 1500 1502 1504 1506 1507 1508 1509 1510 1510 1510 1510 1510 1510 1510 1511 1510 1509 1508 1508 1507 1507 1506 1505 1504 1503 1503 1503 1502
1473 1475 1478 1482 1483 1483 1485 1486 1487 1488 1490 1491 1492 1494 1497 1499 1501 1503 1505 1506 1507 1508 1509 1509 1510 1510 1510 1510 1510 1509 1509 1509 1508 1507 1506 1506 1505 1505 1504 1504 1502 1502 1501 1500
1476 1477 1479 1482 1482 1484 1485 1487 1488 1489 1491 1492 1494 1495 1497 1499 1501 1502 1504 1505 1507 1507 1508 1509 1509 1509 1509 1509 1509 1508 1508 1507 1507 1506 1506 1505 1504 1503 1502 1502 1501 1500 1499 1498
1476 1478 1481 1482 1483 1484 1486 1487 1489 1490 1492 1493 1494 1496 1497 1498 1500 1501 1503 1504 1506 1506 1507 1507 1508 1508 1508 1507 1507 1507 1506 1506 1505 1505 1504 1504 1503 1502 1501 1500 1499 1498 1498 1496